LILACSAT-2              
1 40908U 15049K   21272.86428484  .00001111  00000-0  63684-4 0  9993
2 40908  97.5094 271.4703 0015104 192.8856 213.3570 15.14588985333038
XW-2F                   
1 40910U 15049M   21272.79049781  .00002879  00000-0  13871-3 0  9991
2 40910  97.4753 276.9354 0014628 160.2050  11.5449 15.19453454333567
XW-2B                   
1 40911U 15049N   21272.78445963  .00001797  00000-0  93524-4 0  9995
2 40911  97.4885 274.3673 0013687 175.9163 358.6842 15.17259741333307
KAITUO 1B               
1 40912U 15049P   21272.85908928  .00003404  00000-0  15154-3 0  9998
2 40912  97.4460 281.3879 0015324 131.7992 312.1510 15.22048622334075
TIANWANG 1A (TW-1A)     
1 40928U 15051D   21272.85297600  .00011003  00000-0  21760-3 0  9990
2 40928  97.0717 295.3020 0006932 269.0361 265.9576 15.47246440337824
LAPAN-A2                
1 40931U 15052B   21272.28458724  .00000735  00000-0  13288-4 0  9995
2 40931   5.9979 231.8344 0012447  70.9481 289.1986 14.76691290324670
[email protected]               
1 41459U 16025D   21272.83252204  .00004072  00000-0  19651-3 0  9995
2 41459  98.1569  55.3883 0159553  70.8340 291.0077 15.08740616298154
AAUSAT 4                
1 41460U 16025E   21272.37512713  .00005722  00000-0  26046-3 0  9999
2 41460  98.1554  59.3213 0145445  54.5745 306.8949 15.12114511298410
NUSAT-1 (FRESCO)        
1 41557U 16033B   21272.86906818  .00004198  00000-0  14700-3 0  9992
2 41557  97.3928   6.2579 0011591 219.3713 261.8003 15.29992704297493
BEESAT-4                
1 41619U 16040W   21272.40688839  .00004669  00000-0  18357-3 0  9994
2 41619  97.2587 325.5596 0009410 332.2076  27.8659 15.26104792280861
CAS-2T & KS-1Q          
1 41847U 16066G   21272.69128261  .00000185  00000-0  39183-4 0  9994
2 41847  98.5904 332.1982 0363913 269.2028  86.7457 14.38241419256864
NAYIF-1 (EO-88)         
1 42017U 17008BX  21272.45628991  .00005599  00000-0  20229-3 0  9994
2 42017  97.3061 338.1813 0007568  98.9295 261.2802 15.28837229257144
ZHUHAI-1 02 (CAS-4B)    
1 42759U 17034B   21272.86968634  .00001086  00000-0  78228-4 0  9992
2 42759  43.0192 326.9707 0006772  95.8270  73.1993 15.10396615236937
ZHUHAI-1 01 (CAS-4A)    
1 42761U 17034D   21272.65045517  .00001059  00000-0  76467-4 0  9991
2 42761  43.0199 327.1532 0007221  97.1563  40.5615 15.10483517236900
MAX VALIER SAT          
1 42778U 17036P   21272.38770410  .00003020  00000-0  12735-3 0  9995
2 42778  97.2450 317.5553 0012343 161.6968 198.4716 15.23988456237117
RADFXSAT (FOX-1B)       
1 43017U 17073E   21272.67900864  .00002177  00000-0  17244-3 0  9995
2 43017  97.6942 172.4826 0253326 320.5560  37.7444 14.79784868208535
FOX-1D (AO-92)          
1 43137U 18004AC  21272.17155649  .00003640  00000-0  14567-3 0  9992
2 43137  97.3984 345.1256 0008212 194.9373 165.1623 15.25686822206473
DIWATA-2B               
1 43678U 18084H   21272.68897420 -.00000113  00000-0 -54298-5 0  9997
2 43678  97.9368  38.5857 0011224  69.1621 291.0799 14.91792937158972
ES'HAIL 2               
1 43700U 18090A   21272.56783715  .00000143  00000-0  00000-0 0  9996
2 43700   0.0178 177.2730 0002438  45.1274  16.3678  1.00272493 10414
FOX-1CLIFF (AO-95)      
1 43770U 18099N   21272.43448474  .00000481  00000-0  48576-4 0  9997
2 43770  97.6560 340.2830 0015869  72.0742 288.2208 14.95445783153994
ITASAT 1                
1 43786U 18099AE  21272.20001845  .00001055  00000-0  99632-4 0  9993
2 43786  97.6578 340.8040 0016416  66.8374 293.4574 14.95721505153993
JY1SAT (JO-97)          
1 43803U 18099AX  21272.14599350  .00001412  00000-0  13065-3 0  9991
2 43803  97.6543 340.4926 0016493  66.8042 293.4914 14.95995790153998
UWE-4                   
1 43880U 18111E   21272.46093758  .00000597  00000-0  56835-4 0  9993
2 43880  97.6769 178.3773 0013267 112.5117 247.7510 14.96999595150640
NEXUS (FO-99)           
1 43937U 19003F   21272.38719874  .00004438  00000-0  17263-3 0  9991
2 43937  97.1674 311.3812 0022918   8.5391 351.6234 15.26274960150113
PSAT2 (NO-104)          
1 44354U 19036R   21272.36981775  .00024709  00000-0  31493-3 0  9994
2 44354  28.5279 152.4422 0312627 325.6414  32.4321 15.16861466124759
BRICSAT2 (NO-103)       
1 44355U 19036S   21272.78996592  .00072208 -47217-5  69196-3 0  9999
2 44355  28.5245  85.3528 0235366  74.6971 287.9513 15.37408094125452
JAISAT-1                
1 44419U 19038F   21272.47384082  .00003071  00000-0  17155-3 0  9996
2 44419  97.6000 236.8737 0019689 317.5668  42.4040 15.14128618123536
DUCHIFAT-3              
1 44854U 19089C   21272.53393036  .00001283  00000-0  10837-3 0  9994
2 44854  36.9656 205.0614 0009106 265.5839  94.3902 14.99651927 98731
CAS-6 (TO-108)          
1 44881U 19093C   21272.75167268  .00000168  00000-0  28236-4 0  9993
2 44881  97.9180 350.4148 0014181 318.6783  41.3353 14.81485112 96174
RS-44 & BREEZE-KM R/B   
1 44909U 19096E   21272.45302990  .00000035  00000-0  98193-4 0  9999
2 44909  82.5234  43.6941 0217021 209.7196 149.1433 12.79711225 82121
ORBITAL FACTORY 2 (OF-2)
1 45113U 19071C   21272.55708564  .00001730  00000-0  58243-4 0  9993
2 45113  51.6427 252.4422 0011200 314.1687  45.8375 15.36693127 93171
HUSKYSAT-1 (HO-107)     
1 45119U 19071J   21272.24361841  .00007688  00000-0  22174-3 0  9999
2 45119  51.6400 253.3420 0010439 309.0816  50.9238 15.36642945 93128
BY70-2                  
1 45857U 20042B   21272.75822642  .00001830  00000-0  26475-3 0  9996
2 45857  97.9784 347.4150 0010024 231.1859 128.8454 14.77322251 66946
SALSAT                  
1 46495U 20068K   21272.54941007  .00000666  00000-0  53124-4 0  9995
2 46495  97.6988 209.4603 0018974  81.1448 279.1924 15.03569642 54976
BY70-3                  
1 46839U 20079N   21272.88510580  .00006365  00000-0  19258-3 0  9995
2 46839  97.2315 344.6764 0007029 177.7159 307.2589 15.34513859 50214
RADFXSAT-2 (AO-109)     
1 47311U 21002C   21272.36290821  .00002998  00000-0  13909-3 0  9999
2 47311  60.6861 262.1087 0041858 100.4873 260.0934 15.22054810 38687
UVSQ-SAT                
1 47438U 21006AB  21272.26291700  .00002261  00000-0  13000-3 0  9994
2 47438  97.4768 331.5863 0014316  99.1987 261.0865 15.13404815 37758
DIY-1 (ARDUIQUBE)       
1 47963U 21022AH  21272.17473124  .00004681  00000-0  30869-3 0  9997
2 47963  97.5466 172.6497 0018224 315.6145  44.3621 15.07827399 27523
